Tracking 30994 objects as of 8-Jul-2025
HD Live streaming from Space Station
objects crossing your sky now

DELTA 1 DEB

Track DELTA 1 DEB now!
10-day predictions


NORAD ID: 7182
Int'l Code: 1973-086ET
Perigee: 1,097.9 km
Apogee: 1,622.5 km
Inclination: 102.5 °
Period: 112.8 minutes
Semi major axis: 7731 km
RCS: 0.0751 m2 (small)
Launch date: November 6, 1973
Source: United States (US)
Launch site: AIR FORCE WESTERN TEST RANGE (AFWTR)

Note: This is SATELLITE DEBRIS
Your satellite tracking list
Your tracking list is empty




NASA's NSSDC Master Catalog

Two Line Element Set (TLE):
1  7182U 73086ET  25188.85079816  .00000487  00000-0  19449-2 0  9998
2  7182 102.5030 313.8187 0339267 185.0415 330.5593 12.77127489644332
Source of the keplerian elements: AFSPC